STARLINK-35549, 66139

Orbit data source: Space-Track

STARLINK-35549, 66139 is a payload satellite owned by SpaceX/Seattle (US) in LEO that was launched on Wed, 22 Oct 2025 UTC via an FALCON 9 launch vehicle from the Air Force Western Test Range (AFWTR). Payload-class satellites include a variety of spacecraft equipped with specific instruments for various scientific and technological missions. These include communications satellites like Starlink; space stations such as the ISS; scientific satellites like the Hubble; Earth observation satellites from companies like Planet Labs, Umbra, and HawkEye 360; GPS; miniature CubeSats for education and research; and military/defense satellites.

Loading next visibility...
Identifier
66139, 2025-237AB
Orbit
LEO
Country
Flag of USUS
Related business
Manufacturer
SpaceX/Seattle
Mission
Operational Commercial Communications
Bus & Motor
STARLINK V2MO, Unknown motor
Mass
575 kg wet, ~530 kg dry
Launch date (UTC)
2025-10-22 (3 months ago)
Launch vehicle
FALCON 9
Launch site
Air Force Western Test Range (AFWTR)
Object type
Payload
Rocket body
Debris
Shape & HBR
Box + 2 Pan, 17.7 m
Radar Cross Section
36.964 m²

Expand to show TLE details & history
Last TLE update: 11 hours ago

TLE from 11 hours ago
0 STARLINK-35549
1 66139U 25237AB  26023.65303675  .00054171  00000-0  13516-2 0  9998
2 66139  53.1585 249.6320 0002819  77.2273 282.9047 15.39686025 15708
Epoch: 2026-01-23T15:40Z
TLE epoch observation values (Epoch: 2026-01-23T15:40:22.375Z)
Latitude
0.00001°
Longitude
-108.44999°
Altitude
447.511 km
Speed
7.645 km/s
True Right ascension
16h 38m 31s
True Declination
0° 00' 00"
Sunlit
Object was in daylight at epoch
Visualization orbit readout
Latitude
Unknown
Longitude
Unknown
Altitude
Unknown
Speed
Unknown
Apparent Right ascension
Unknown
Apparent Declination
Unknown
Sunlit
N/A
Visualization observer readout
Local Sidereal Time
03:30:35
Azimuth
Unknown
Elevation
Unknown
Doppler factor
Unknown
Orbital elements
Apogee altitude
449.219 km
Perigee altitude
445.371 km
Semi-major axis
6,825.432 km
Eccentricity
0.00028
Inclination
53.1585°
RAAN
249.632°
Arg. of periapsis
77.2273°
True anomaly
282.87321°
Mean anomaly
282.9047°
Eccentric anomaly
282.88896°
Mean motion
3.849 °/min
Orbital period
93.53 mins
BSTAR
0.0013516
Loading maneuver chart data...
Computing Atmospheric mass density...
Loading historical data...
Loading historical data...
Loading historical data...
Loading historical data...
Loading historical data...
Loading historical data...
Loading historical data...

Documentation

Showing up to 5 results
|